A2SWK PHMU-PHNL

Flight info

Callsign A2SWK
Flight time 0h 58m
Altitude 7000
Route MUE V3 TIGAH/N0185F080 V16 LNY SHLAE1
Aircraft K100/L-SBDGRY/S

Departure

Time 2026-05-08 00:52
Airport Waimea Kohala Airport (PHMU)

Arrival

Time 2026-05-08 01:50
Airport Daniel K. Inouye International Airport (PHNL)
Time Latitude Longitude Altitude Speed Heading
2026-05-08 00:48 19.99842 -155.67216 2665 ft 0 kts 47°
2026-05-08 00:50 19.99969 -155.67045 2664 ft 55 kts 52°
2026-05-08 00:50 20.00290 -155.66625 2696 ft 81 kts 45°
2026-05-08 00:50 20.00598 -155.66190 2907 ft 62 kts 46°
2026-05-08 00:51 20.00855 -155.65810 2854 ft 75 kts 63°
2026-05-08 00:51 20.00974 -155.65263 2923 ft 75 kts 88°
2026-05-08 00:51 20.00619 -155.64822 3018 ft 87 kts 128°
2026-05-08 00:51 20.00656 -155.64267 3157 ft 88 kts 41°
2026-05-08 00:52 20.00956 -155.63712 3398 ft 91 kts 70°
2026-05-08 00:52 20.01248 -155.63126 3636 ft 93 kts 49°
2026-05-08 00:52 20.01856 -155.62813 3839 ft 107 kts 12°
2026-05-08 00:52 20.02649 -155.62954 3934 ft 123 kts 348°
2026-05-08 00:53 20.03216 -155.63628 4127 ft 130 kts 293°
2026-05-08 00:53 20.03690 -155.64424 4391 ft 128 kts 317°
2026-05-08 00:53 20.04276 -155.65140 4646 ft 129 kts 313°
2026-05-08 00:53 20.04861 -155.65866 4895 ft 130 kts 316°
2026-05-08 00:54 20.05457 -155.66597 5135 ft 130 kts 315°
2026-05-08 00:54 20.06055 -155.67317 5382 ft 133 kts 314°
2026-05-08 00:54 20.06669 -155.68065 5627 ft 136 kts 313°
2026-05-08 00:54 20.07294 -155.68824 5876 ft 137 kts 313°
2026-05-08 00:55 20.07927 -155.69589 6128 ft 138 kts 312°
2026-05-08 00:55 20.08561 -155.70359 6375 ft 138 kts 312°
2026-05-08 00:55 20.09191 -155.71124 6610 ft 137 kts 311°
2026-05-08 00:55 20.09813 -155.71883 6849 ft 135 kts 310°
2026-05-08 00:56 20.10428 -155.72633 7080 ft 134 kts 310°
2026-05-08 00:56 20.11039 -155.73374 7316 ft 133 kts 310°
2026-05-08 00:56 20.11647 -155.74112 7542 ft 132 kts 310°
2026-05-08 00:56 20.12251 -155.74845 7784 ft 130 kts 309°
2026-05-08 00:57 20.12850 -155.75572 7981 ft 134 kts 309°
2026-05-08 00:57 20.13496 -155.76348 7987 ft 149 kts 311°
2026-05-08 00:57 20.14207 -155.77202 7996 ft 159 kts 309°
2026-05-08 00:57 20.14944 -155.78102 7997 ft 163 kts 308°
2026-05-08 00:58 20.15696 -155.79022 8000 ft 166 kts 308°
2026-05-08 00:58 20.16461 -155.79954 7993 ft 168 kts 309°
2026-05-08 00:58 20.17228 -155.80887 7996 ft 167 kts 309°
2026-05-08 00:58 20.17997 -155.81822 8000 ft 169 kts 308°
2026-05-08 00:59 20.18769 -155.82762 7995 ft 168 kts 309°
2026-05-08 00:59 20.19536 -155.83695 7991 ft 167 kts 308°
2026-05-08 00:59 20.20243 -155.84671 7993 ft 165 kts 296°
2026-05-08 00:59 20.20766 -155.85740 7993 ft 165 kts 296°
2026-05-08 01:00 20.21313 -155.86819 7989 ft 167 kts 296°
2026-05-08 01:00 20.21867 -155.87903 7983 ft 166 kts 297°
2026-05-08 01:00 20.22412 -155.88984 7985 ft 165 kts 296°
2026-05-08 01:00 20.22962 -155.90074 7983 ft 168 kts 297°
2026-05-08 01:01 20.23516 -155.91166 7984 ft 167 kts 296°
2026-05-08 01:01 20.24064 -155.92252 7985 ft 166 kts 296°
2026-05-08 01:01 20.24615 -155.93345 7985 ft 169 kts 297°
2026-05-08 01:01 20.25176 -155.94453 7988 ft 171 kts 296°
2026-05-08 01:02 20.25736 -155.95559 7985 ft 172 kts 296°
2026-05-08 01:02 20.26306 -155.96686 7989 ft 173 kts 297°
2026-05-08 01:02 20.26876 -155.97815 7989 ft 173 kts 297°
2026-05-08 01:02 20.27446 -155.98947 7988 ft 174 kts 297°
2026-05-08 01:03 20.28018 -156.00083 7981 ft 174 kts 296°
2026-05-08 01:03 20.28592 -156.01219 7976 ft 174 kts 297°
2026-05-08 01:03 20.29164 -156.02354 7982 ft 174 kts 297°
2026-05-08 01:03 20.29737 -156.03488 7975 ft 174 kts 297°
2026-05-08 01:04 20.30311 -156.04626 7975 ft 174 kts 296°
2026-05-08 01:04 20.30883 -156.05760 7980 ft 174 kts 297°
2026-05-08 01:04 20.31448 -156.06881 7981 ft 174 kts 296°
2026-05-08 01:04 20.32019 -156.08016 7980 ft 174 kts 297°
2026-05-08 01:05 20.32592 -156.09152 7981 ft 173 kts 296°
2026-05-08 01:05 20.33161 -156.10283 7981 ft 173 kts 297°
2026-05-08 01:05 20.33725 -156.11403 7990 ft 173 kts 297°
2026-05-08 01:05 20.34297 -156.12536 7989 ft 173 kts 297°
2026-05-08 01:06 20.34867 -156.13669 7994 ft 174 kts 297°
2026-05-08 01:06 20.35439 -156.14805 7994 ft 174 kts 297°
2026-05-08 01:06 20.36013 -156.15943 7994 ft 174 kts 297°
2026-05-08 01:06 20.36584 -156.17080 7994 ft 174 kts 297°
2026-05-08 01:07 20.37156 -156.18215 7990 ft 174 kts 296°
2026-05-08 01:07 20.37725 -156.19349 7989 ft 174 kts 297°
2026-05-08 01:07 20.38297 -156.20485 7995 ft 173 kts 296°
2026-05-08 01:07 20.38866 -156.21617 7989 ft 173 kts 296°
2026-05-08 01:08 20.39436 -156.22752 7997 ft 174 kts 296°
2026-05-08 01:08 20.40006 -156.23886 7996 ft 174 kts 297°
2026-05-08 01:08 20.40578 -156.25023 7991 ft 174 kts 297°
2026-05-08 01:08 20.41150 -156.26164 7996 ft 175 kts 298°
2026-05-08 01:09 20.41721 -156.27299 7996 ft 176 kts 298°
2026-05-08 01:09 20.42299 -156.28448 7996 ft 176 kts 298°
2026-05-08 01:09 20.42876 -156.29596 7996 ft 176 kts 297°
2026-05-08 01:09 20.43452 -156.30746 7996 ft 176 kts 297°
2026-05-08 01:10 20.44030 -156.31897 7999 ft 176 kts 298°
2026-05-08 01:10 20.44608 -156.33049 7999 ft 176 kts 297°
2026-05-08 01:10 20.45185 -156.34202 7990 ft 176 kts 297°
2026-05-08 01:10 20.45764 -156.35356 7994 ft 177 kts 297°
2026-05-08 01:11 20.46343 -156.36510 7996 ft 176 kts 298°
2026-05-08 01:11 20.46924 -156.37668 7997 ft 178 kts 297°
2026-05-08 01:11 20.47512 -156.38840 7996 ft 179 kts 297°
2026-05-08 01:11 20.48102 -156.40018 7997 ft 180 kts 298°
2026-05-08 01:12 20.48685 -156.41181 7998 ft 180 kts 298°
2026-05-08 01:12 20.49278 -156.42363 7998 ft 181 kts 298°
2026-05-08 01:12 20.49870 -156.43546 7998 ft 181 kts 297°
2026-05-08 01:12 20.50464 -156.44733 7998 ft 181 kts 297°
2026-05-08 01:13 20.51056 -156.45916 8006 ft 181 kts 297°
2026-05-08 01:13 20.51647 -156.47099 8000 ft 181 kts 297°
2026-05-08 01:13 20.52240 -156.48283 8001 ft 181 kts 297°
2026-05-08 01:13 20.52831 -156.49465 8006 ft 181 kts 297°
2026-05-08 01:14 20.53424 -156.50650 8004 ft 181 kts 297°
2026-05-08 01:14 20.54015 -156.51833 8001 ft 181 kts 297°
2026-05-08 01:14 20.54608 -156.53019 8001 ft 181 kts 297°
2026-05-08 01:14 20.55200 -156.54202 8001 ft 181 kts 298°
2026-05-08 01:15 20.55790 -156.55383 8001 ft 180 kts 297°
2026-05-08 01:15 20.56381 -156.56565 7996 ft 181 kts 297°
2026-05-08 01:15 20.56972 -156.57750 8004 ft 181 kts 297°
2026-05-08 01:15 20.57556 -156.58918 7999 ft 181 kts 297°
2026-05-08 01:16 20.58146 -156.60103 8005 ft 181 kts 297°
2026-05-08 01:16 20.58738 -156.61288 8005 ft 181 kts 297°
2026-05-08 01:16 20.59330 -156.62473 8005 ft 181 kts 297°
2026-05-08 01:16 20.59921 -156.63657 7997 ft 181 kts 297°
2026-05-08 01:17 20.60512 -156.64842 7998 ft 181 kts 297°
2026-05-08 01:17 20.61104 -156.66029 7999 ft 181 kts 297°
2026-05-08 01:17 20.61696 -156.67215 7994 ft 181 kts 297°
2026-05-08 01:17 20.62285 -156.68397 7999 ft 180 kts 297°
2026-05-08 01:18 20.62875 -156.69580 7996 ft 180 kts 297°
2026-05-08 01:18 20.63465 -156.70764 7996 ft 181 kts 298°
2026-05-08 01:18 20.64055 -156.71949 7996 ft 181 kts 297°
2026-05-08 01:18 20.64638 -156.73120 7996 ft 181 kts 297°
2026-05-08 01:19 20.65231 -156.74310 7998 ft 181 kts 297°
2026-05-08 01:19 20.65823 -156.75500 7998 ft 181 kts 297°
2026-05-08 01:19 20.66415 -156.76687 7989 ft 181 kts 297°
2026-05-08 01:19 20.67004 -156.77872 7989 ft 181 kts 297°
2026-05-08 01:20 20.67593 -156.79057 7988 ft 181 kts 297°
2026-05-08 01:20 20.68181 -156.80239 7993 ft 180 kts 297°
2026-05-08 01:20 20.68770 -156.81423 7994 ft 180 kts 297°
2026-05-08 01:20 20.69357 -156.82605 7988 ft 180 kts 297°
2026-05-08 01:21 20.69948 -156.83790 7992 ft 181 kts 297°
2026-05-08 01:21 20.70537 -156.84974 7992 ft 181 kts 297°
2026-05-08 01:21 20.71126 -156.86161 7987 ft 181 kts 297°
2026-05-08 01:21 20.71708 -156.87331 7992 ft 181 kts 297°
2026-05-08 01:22 20.72296 -156.88517 7991 ft 181 kts 297°
2026-05-08 01:22 20.72883 -156.89699 7983 ft 179 kts 297°
2026-05-08 01:22 20.73468 -156.90877 7983 ft 179 kts 297°
2026-05-08 01:22 20.74052 -156.92055 7985 ft 180 kts 298°
2026-05-08 01:23 20.74640 -156.93240 7988 ft 181 kts 297°
2026-05-08 01:23 20.75230 -156.94429 7983 ft 181 kts 297°
2026-05-08 01:23 20.75819 -156.95615 7988 ft 180 kts 297°
2026-05-08 01:23 20.76397 -156.96800 7985 ft 180 kts 294°
2026-05-08 01:24 20.76734 -156.98080 7978 ft 179 kts 283°
2026-05-08 01:24 20.77028 -156.99359 7984 ft 179 kts 284°
2026-05-08 01:24 20.77338 -157.00653 7982 ft 179 kts 284°
2026-05-08 01:24 20.77645 -157.01948 7985 ft 179 kts 284°
2026-05-08 01:25 20.77951 -157.03244 7987 ft 179 kts 284°
2026-05-08 01:25 20.78256 -157.04537 7982 ft 179 kts 284°
2026-05-08 01:25 20.78560 -157.05830 7984 ft 179 kts 284°
2026-05-08 01:25 20.78861 -157.07105 7982 ft 179 kts 283°
2026-05-08 01:26 20.79167 -157.08403 7978 ft 179 kts 283°
2026-05-08 01:26 20.79471 -157.09697 7977 ft 179 kts 283°
2026-05-08 01:26 20.79778 -157.10996 7983 ft 179 kts 283°
2026-05-08 01:26 20.80078 -157.12273 7982 ft 179 kts 283°
2026-05-08 01:27 20.80384 -157.13572 7983 ft 179 kts 283°
2026-05-08 01:27 20.80689 -157.14867 7978 ft 179 kts 283°
2026-05-08 01:27 20.80992 -157.16159 7977 ft 179 kts 284°
2026-05-08 01:27 20.81297 -157.17453 7981 ft 179 kts 284°
2026-05-08 01:28 20.81597 -157.18733 7982 ft 179 kts 284°
2026-05-08 01:28 20.81901 -157.20026 7984 ft 179 kts 283°
2026-05-08 01:28 20.82205 -157.21320 7983 ft 179 kts 283°
2026-05-08 01:28 20.82509 -157.22615 7985 ft 179 kts 283°
2026-05-08 01:29 20.82812 -157.23904 7984 ft 179 kts 284°
2026-05-08 01:29 20.83115 -157.25196 7981 ft 179 kts 284°
2026-05-08 01:29 20.83417 -157.26485 7982 ft 179 kts 283°
2026-05-08 01:29 20.83719 -157.27773 7979 ft 179 kts 284°
2026-05-08 01:30 20.84020 -157.29052 7919 ft 182 kts 284°
2026-05-08 01:30 20.84339 -157.30402 7679 ft 192 kts 284°
2026-05-08 01:30 20.84671 -157.31806 7423 ft 196 kts 286°
2026-05-08 01:30 20.85260 -157.33127 7165 ft 199 kts 300°
2026-05-08 01:31 20.85936 -157.34426 6897 ft 201 kts 298°
2026-05-08 01:31 20.86372 -157.35306 6721 ft 202 kts 298°
2026-05-08 01:31 20.87035 -157.36631 6455 ft 202 kts 299°
2026-05-08 01:31 20.87922 -157.38392 6084 ft 203 kts 300°
2026-05-08 01:32 20.88589 -157.39718 5813 ft 202 kts 299°
2026-05-08 01:32 20.89251 -157.41034 5551 ft 200 kts 300°
2026-05-08 01:32 20.89698 -157.41919 5371 ft 200 kts 300°
2026-05-08 01:32 20.90354 -157.43224 5107 ft 199 kts 300°
2026-05-08 01:33 20.90998 -157.44491 4845 ft 191 kts 301°
2026-05-08 01:33 20.91610 -157.45713 4588 ft 183 kts 299°
2026-05-08 01:33 20.92201 -157.46900 4358 ft 179 kts 302°
2026-05-08 01:33 20.92796 -157.48067 4122 ft 178 kts 300°
2026-05-08 01:34 20.93467 -157.49153 3986 ft 169 kts 319°
2026-05-08 01:34 20.94289 -157.49996 3985 ft 160 kts 319°
2026-05-08 01:34 20.95060 -157.50826 3984 ft 155 kts 319°
2026-05-08 01:34 20.95812 -157.51630 3980 ft 152 kts 320°
2026-05-08 01:35 20.96558 -157.52420 3977 ft 150 kts 320°
2026-05-08 01:35 20.97304 -157.53205 3976 ft 150 kts 318°
2026-05-08 01:35 20.98108 -157.53881 3972 ft 145 kts 347°
2026-05-08 01:35 20.99082 -157.53827 3983 ft 140 kts 12°
2026-05-08 01:36 21.00039 -157.53676 3987 ft 139 kts 11°
2026-05-08 01:36 21.00996 -157.53806 3976 ft 146 kts 330°
2026-05-08 01:36 21.01610 -157.54682 3987 ft 150 kts 298°
2026-05-08 01:36 21.02078 -157.55689 3940 ft 154 kts 299°
2026-05-08 01:37 21.02568 -157.56732 3823 ft 159 kts 301°
2026-05-08 01:37 21.03085 -157.57798 3704 ft 162 kts 302°
2026-05-08 01:37 21.03656 -157.58843 3597 ft 163 kts 304°
2026-05-08 01:37 21.04236 -157.59886 3479 ft 166 kts 305°
2026-05-08 01:38 21.04814 -157.60967 3356 ft 168 kts 305°
2026-05-08 01:38 21.05388 -157.62049 3233 ft 166 kts 305°
2026-05-08 01:38 21.05953 -157.63114 3105 ft 163 kts 305°
2026-05-08 01:38 21.06506 -157.64164 2982 ft 162 kts 306°
2026-05-08 01:39 21.07038 -157.65228 2855 ft 161 kts 304°
2026-05-08 01:39 21.07588 -157.66274 2735 ft 162 kts 306°
2026-05-08 01:39 21.08129 -157.67342 2604 ft 163 kts 304°
2026-05-08 01:39 21.08679 -157.68405 2481 ft 164 kts 303°
2026-05-08 01:40 21.09211 -157.69490 2358 ft 164 kts 304°
2026-05-08 01:40 21.09757 -157.70565 2236 ft 165 kts 305°
2026-05-08 01:40 21.10296 -157.71656 2114 ft 166 kts 304°
2026-05-08 01:40 21.10829 -157.72761 1990 ft 167 kts 304°
2026-05-08 01:41 21.11349 -157.73855 1871 ft 167 kts 304°
2026-05-08 01:41 21.11884 -157.74951 1747 ft 166 kts 304°
2026-05-08 01:41 21.12414 -157.76046 1622 ft 166 kts 304°
2026-05-08 01:41 21.12930 -157.77147 1508 ft 164 kts 303°
2026-05-08 01:42 21.13433 -157.78219 1508 ft 157 kts 304°
2026-05-08 01:42 21.13918 -157.79255 1507 ft 154 kts 304°
2026-05-08 01:42 21.14388 -157.80282 1507 ft 153 kts 304°
2026-05-08 01:42 21.14849 -157.81308 1507 ft 152 kts 304°
2026-05-08 01:43 21.15305 -157.82331 1503 ft 152 kts 304°
2026-05-08 01:43 21.15770 -157.83347 1507 ft 152 kts 305°
2026-05-08 01:43 21.16221 -157.84367 1503 ft 153 kts 303°
2026-05-08 01:43 21.16684 -157.85388 1504 ft 152 kts 305°
2026-05-08 01:44 21.17139 -157.86414 1507 ft 152 kts 304°
2026-05-08 01:44 21.17595 -157.87437 1508 ft 152 kts 304°
2026-05-08 01:44 21.18061 -157.88451 1508 ft 152 kts 304°
2026-05-08 01:44 21.18515 -157.89477 1508 ft 152 kts 303°
2026-05-08 01:45 21.18973 -157.90483 1510 ft 152 kts 303°
2026-05-08 01:45 21.19441 -157.91500 1510 ft 151 kts 304°
2026-05-08 01:45 21.19911 -157.92509 1510 ft 151 kts 304°
2026-05-08 01:45 21.20373 -157.93527 1510 ft 151 kts 305°
2026-05-08 01:46 21.20822 -157.94533 1509 ft 151 kts 305°
2026-05-08 01:46 21.21288 -157.95549 1510 ft 151 kts 303°
2026-05-08 01:46 21.21755 -157.96564 1509 ft 152 kts 304°
2026-05-08 01:46 21.22207 -157.97577 1509 ft 152 kts 304°
2026-05-08 01:47 21.22677 -157.98613 1513 ft 153 kts 303°
2026-05-08 01:47 21.23146 -157.99620 1522 ft 153 kts 303°
2026-05-08 01:47 21.23740 -158.00526 1523 ft 142 kts 337°
2026-05-08 01:48 21.25303 -158.00056 1528 ft 126 kts 46°
2026-05-08 01:48 21.25878 -157.99336 1529 ft 128 kts 50°
2026-05-08 01:48 21.26440 -157.98592 1505 ft 126 kts 51°
2026-05-08 01:48 21.26980 -157.97839 1372 ft 129 kts 52°
2026-05-08 01:49 21.27526 -157.97065 1211 ft 129 kts 52°
2026-05-08 01:49 21.28026 -157.96351 1064 ft 107 kts 56°
2026-05-08 01:49 21.28436 -157.95773 908 ft 82 kts 48°
2026-05-08 01:49 21.28750 -157.95346 822 ft 70 kts 51°
2026-05-08 01:50 21.29028 -157.94950 722 ft 61 kts 56°
2026-05-08 01:50 21.29283 -157.94627 648 ft 59 kts 49°
2026-05-08 01:50 21.29518 -157.94329 564 ft 43 kts 36°
2026-05-08 01:50 21.29768 -157.94171 308 ft 58 kts 12°
2026-05-08 01:51 21.30069 -157.93865 212 ft 63 kts 64°
2026-05-08 01:51 21.30164 -157.93438 192 ft 57 kts 41°
2026-05-08 01:51 21.30398 -157.93116 195 ft 57 kts 64°
2026-05-08 01:51 21.30628 -157.92780 192 ft 55 kts 56°
2026-05-08 01:52 21.30856 -157.92415 150 ft 63 kts 61°
2026-05-08 01:52 21.31112 -157.91985 66 ft 72 kts 60°
2026-05-08 01:52 21.31370 -157.91565 37 ft 38 kts 66°
2026-05-08 01:52 21.31463 -157.91430 11 ft 16 kts 46°
2026-05-08 01:53 21.31529 -157.91383 11 ft 8 kts 32°
2026-05-08 01:53 21.31566 -157.91357 11 ft 5 kts 34°
2026-05-08 01:53 21.31596 -157.91339 11 ft 5 kts 38°
2026-05-08 01:53 21.31624 -157.91322 11 ft 5 kts 28°
2026-05-08 01:54 21.31653 -157.91309 12 ft 4 kts 24°
2026-05-08 01:54 21.31682 -157.91307 12 ft 4 kts 29°
2026-05-08 01:54 21.31709 -157.91304 13 ft 4 kts 30°
2026-05-08 01:54 21.31734 -157.91291 13 ft 5 kts 44°
2026-05-08 01:55 21.31750 -157.91275 13 ft 1 kts 52°
2026-05-08 01:55 21.31754 -157.91270 13 ft 1 kts 53°
2026-05-08 01:55 21.31755 -157.91267 13 ft 0 kts 54°
2026-05-08 01:55 21.31756 -157.91265 13 ft 1 kts 55°
2026-05-08 01:56 21.31768 -157.91250 14 ft 5 kts 44°
2026-05-08 01:56 21.31796 -157.91221 16 ft 7 kts 73°
2026-05-08 01:56 21.31818 -157.90995 13 ft 55 kts 90°
2026-05-08 01:56 21.31836 -157.90497 167 ft 70 kts 78°
2026-05-08 01:57 21.32084 -157.90035 343 ft 73 kts 93°
2026-05-08 01:57 21.31730 -157.89794 121 ft 54 kts 167°
2026-05-08 01:57 21.31600 -157.89746 11 ft 4 kts 45°
2026-05-08 01:57 21.31628 -157.89719 11 ft 4 kts 50°
2026-05-08 01:58 21.31630 -157.89718 11 ft 10 kts 53°